Preview of NWS' New Version of Forecast
This preview is not operational and should not be used for support decisions.

Regional Weather Roundup (RWR)

Issued by National Weather Service (NWS)

                            
000
ASUS43 KDMX 200401
RWRIA 

WEATHER ROUNDUP FOR IOWA
NATIONAL WEATHER SERVICE DES MOINES IA
1000 PM CST TUE FEB 19 2019

NOTE: "FAIR" INDICATES FEW OR NO CLOUDS BELOW 12,000 FEET WITH NO
SIGNIFICANT WEATHER AND/OR OBSTRUCTIONS TO VISIBILITY.

* - THESE STATIONS ARE NOT NWS STATIONS...THUS NOT UNDER NWS
QUALITY CONTROL.  THEY ALSO DO NOT REPORT WEATHER SUCH 
AS PRECIPITATION OR FOG.  

IAZ001>003-012>014-020>022-031>034-043>046-200500-
   NORTHWEST IOWA
  
CITY           SKY/WX    TMP DP  RH WIND       PRES   REMARKS
CARROLL *      LGT SNOW  18  18 100 E16       30.12F WCI   3          
CHEROKEE *     LGT SNOW  16  14  92 E12       30.11F WCI   3          
DENISON *      LGT SNOW  18  16  93 E15G23    30.11S WCI   3          
LE MARS *      LGT SNOW  16  16 100 E13       30.09F WCI   2          
ORANGE CITY *  LGT SNOW  16  14  93 E14G20    30.08F WCI   1          
SHELDON *      LGT SNOW  14  14 100 E17       30.09F WCI  -3          
SIOUX CITY     LGT SNOW  17  14  88 E12       30.09F VSB 3/4 WCI   4  
SPENCER        CLOUDY    16   9  74 E17       30.15F WCI   0          
STORM LAKE *   LGT SNOW  16  16 100 E22       30.09F WCI  -2          
$$
 
IAZ055>058-069>071-079>083-090>094-200500-
   SOUTHWEST IOWA
  
CITY           SKY/WX    TMP DP  RH WIND       PRES   REMARKS
ATLANTIC *     CLOUDY    21  21 100 E12       30.10F WCI   9          
AUDUBON *      CLOUDY    18  16  93 E13       30.09F WCI   4          
CLARINDA *     CLOUDY    25  19  80 E8G17     30.11S WCI  16          
COUNCIL BLFS * CLOUDY    21  21 100 E14       30.06F WCI   8          
CRESTON *      CLOUDY    23  21  93 E21       30.09F WCI   8          
HARLAN  *      CLOUDY    19  18  93 E12       30.08F WCI   7          
LAMONI         CLOUDY    26  21  81 E13       30.06F WCI  15          
RED OAK *      CLOUDY    23  19  86 E14G21    30.09F WCI  11          
SHENANDOAH *   LGT SNOW  25  21  86 E16       30.08F WCI  12          
$$
 
IAZ047>049-059>061-072>074-084-200500-
   CENTRAL IOWA
  
CITY           SKY/WX    TMP DP  RH WIND       PRES   REMARKS
AMES           LGT SNOW  19  16  88 E9        30.18F FOG     WCI   8  
ANKENY *       MOCLDY    21  19  93 E9G16     30.17F WCI  11          
BOONE *        LGT SNOW  18  18 100 E18       30.15F WCI   2          
CHARITON *     CLOUDY    25  21  86 E17       30.13F WCI  11          
DES MOINES     LGT SNOW  22  19  89 E15G25    30.14F FOG     WCI   9  
GRINNELL*      LGT SNOW  21  19  93 E14       30.22F WCI   8          
KNOXVILLE *    CLOUDY    23  23 100 E13G21    30.15F WCI  11          
MARSHALLTOWN   LGT SNOW  20  18  92 E15       30.20F FOG     WCI   6  
NEWTON *       MOCLDY    21  21 100 E16       30.18F WCI   7          
PELLA *        CLOUDY    23  19  85 E16G24    30.19F WCI  10          
PERRY *        CLOUDY    19  18  95 E15       30.14F FOG     WCI   5  
$$
 
IAZ004>006-015-016-023>025-035-036-200500-
   NORTH CENTRAL IOWA
  
CITY           SKY/WX    TMP DP  RH WIND       PRES   REMARKS
ALGONA *       CLOUDY    16  14  93 E13G20    30.18F WCI   2          
CLARION *      CLOUDY    18  12  79 E16       30.20F WCI   3          
ESTHERVILLE    CLOUDY    13   9  84 SE15      30.18F WCI  -3          
FORT DODGE *   LGT SNOW  16  13  88 E16       30.16F FOG     WCI   1  
MASON CITY     CLOUDY    16  12  84 E10       30.26S WCI   4          
FOREST CITY *  CLOUDY    19  14  79 SE10      30.24S WCI   8          
IOWA FALLS *   LGT SNOW  19  17  89 E13       30.22F VSB 1   WCI   6  
$$

IAZ007>011-017>019-026>030-037>042-050>054-066-200500-
   NORTHEAST IOWA
  
CITY           SKY/WX    TMP DP  RH WIND       PRES   REMARKS
CEDAR RAPIDS   LGT SNOW  21  20  96 E13       30.25F WCI   9          
CHARLES CITY * MOCLDY    19  12  73 E10       30.27S WCI   8          
CLINTON *      CLOUDY    25  20  81 E12       30.33F WCI  14          
DECORAH *      CLOUDY    19  14  79 E8        30.27F WCI   9          
DUBUQUE        LGT SNOW  22  16  78 E9        30.30F WCI  12          
OELWEIN *      CLOUDY    19  19 100 E15       30.27F FOG     WCI   5  
WATERLOO       LGT SNOW  21  17  84 E12       30.27F VSB 1   WCI   9  
$$
 
IAZ064-065-067-068-078-200500-
   EAST CENTRAL IOWA
  
CITY           SKY/WX    TMP DP  RH WIND       PRES   REMARKS
DAVENPORT      CLOUDY    25  19  78 E14       30.32F WCI  13          
IOWA CITY      CLOUDY    25  19  78 E8        30.30F WCI  16          
MT. PLEASANT * CLOUDY    30  27  86 E12       30.23F WCI  21          
MUSCATINE *    CLOUDY    28  21  74 E12       30.31F WCI  18          
QUAD CITIES    CLOUDY    28  23  81 E14       30.31F WCI  17          
$$
 
IAZ062-063-075>077-085>089-095>099-200500-
   SOUTHEAST IOWA
  
CITY           SKY/WX    TMP DP  RH WIND       PRES   REMARKS
BURLINGTON     CLOUDY    31  23  72 E16       30.23F WCI  20          
FAIRFIELD *    CLOUDY    27  21  80 E15       30.20F WCI  15          
FORT MADISON * CLOUDY    30  27  86 E15G21    30.21F WCI  19          
KEOKUK *       CLOUDY    30  27  86 E17       30.19F WCI  18          
OSKALOOSA *    CLOUDY    24  20  84 E16       30.20F WCI  11          
OTTUMWA        FLURRIES  25  21  85 E16       30.18F WCI  12          
WASHINGTON *   CLOUDY    27  25  93 E14G21    30.26F WCI  15          
$$

ABBREVIATIONS USED IN REMARKS
   TC - TEMPERATURES IN CELSIUS
  WCI - WIND CHILL INDEX
   HX - HEAT INDEX
  VSB - VISIBILITY  
$$